Palm Springs, CA

7:34 PM PDT on March 24, 2017 (GMT -0700)
Palm Springs International

Weather History for KPSP - December, 2012

Change the Weather History Date:

Thursday, December 13, 2012

  Actual Average Record
Temperature  
Mean Temperature 56 °F 55 °F  
Max Temperature 59 °F 67 °F 85 °F (1939)
Min Temperature 53 °F 44 °F 28 °F (1949)
Degree Days  
Heating Degree Days 9 10  
Month to date heating degree days 32 113  
Since 1 July heating degree days 67 209  
Cooling Degree Days 0 0  
Month to date cooling degree days 21 0  
Year to date cooling degree days 4726 4137  
Growing Degree Days 4 (Base 50)    
Moisture  
Dew Point 49 °F    
Average Humidity 72    
Maximum Humidity 93    
Minimum Humidity 51    
Precipitation  
Precipitation 0.13 in 0.02 in 1.20 in (1932)
Month to date precipitation 0.13 0.26  
Year to date precipitation 1.95 5.12  
Since 1 July precipitation 1.16  
Snow  
Snow 0.00 in - - ()
Month to date snowfall 0.0  
Year to date snowfall 0.0  
Snow Depth 0.00 in    
Sea Level Pressure  
Sea Level Pressure 29.75 in    
Wind  
Wind Speed 3 mph (ENE)    
Max Wind Speed 10 mph    
Max Gust Speed 18 mph    
Visibility 10 miles    
Events Rain    
T = Trace of Precipitation, MM = Missing Value Source: NWS Daily Summary

Daily Weather History Graph

Daily Weather History Graph

Search for Another Location

Airport or City:

Trip Planner

Search our weather history database for the weather conditions in past years. The results will help you decide how hot, cold, wet, or windy it might be!

Date:

Astronomy

Dec. 13, 2012 Rise Set
Actual Time 6:42 AM PST 4:38 PM PST
Civil Twilight 6:15 AM PST 5:06 PM PST
Nautical Twilight 5:43 AM PST 5:37 PM PST
Astronomical Twilight 5:13 AM PST 6:07 PM PST
Moon 6:56 AM PST (12/13) 5:24 PM PST (12/13)
Length of Visible Light 10h 51m
Length of Day
9h 55m
New Moon, 0% of the Moon is Illuminated
Dec 13
New Moon
Dec 19
First Quarter
Dec 28
Full
Jan 4
Last Quarter
Jan 11
New

Hourly Weather History & Observations

Time (PST) Temp. Dew Point Humidity Pressure Visibility Wind Dir Wind Speed Gust Speed Precip Events Conditions
12:53 AM 55.9 °F 39.9 °F 55% 29.80 in 10.0 mi Calm Calm - N/A   Clear
1:53 AM 57.9 °F 43.0 °F 58% 29.79 in 10.0 mi NE 3.5 mph - N/A   Clear
2:53 AM 57.0 °F 44.1 °F 62% 29.77 in 10.0 mi SE 3.5 mph - N/A   Clear
3:53 AM 55.9 °F 44.1 °F 64% 29.75 in 10.0 mi Variable 3.5 mph - N/A   Clear
4:53 AM 55.9 °F 43.0 °F 62% 29.75 in 10.0 mi Calm Calm - N/A   Mostly Cloudy
5:53 AM 55.0 °F 44.1 °F 67% 29.75 in 10.0 mi NNE 5.8 mph - N/A   Overcast
6:53 AM 55.0 °F 45.0 °F 69% 29.78 in 10.0 mi Calm Calm - 0.01 in Rain Light Rain
7:53 AM 55.0 °F 46.9 °F 74% 29.79 in 10.0 mi WNW 4.6 mph - 0.03 in   Overcast
8:53 AM 55.9 °F 50.0 °F 80% 29.80 in 10.0 mi Calm Calm - N/A   Overcast
9:53 AM 57.0 °F 48.9 °F 74% 29.83 in 10.0 mi NE 6.9 mph - 0.00 in Rain Light Rain
10:53 AM 54.0 °F 51.1 °F 90% 29.83 in 6.0 mi ENE 4.6 mph - 0.04 in Rain Light Rain
11:53 AM 54.0 °F 52.0 °F 93% 29.81 in 8.0 mi Calm Calm - 0.03 in Rain Light Rain
12:03 PM 53.6 °F 51.8 °F 94% 29.80 in 10.0 mi Calm Calm - 0.00 in   Overcast
12:53 PM 54.0 °F 51.1 °F 90% 29.78 in 8.0 mi ESE 3.5 mph - 0.02 in Rain Light Rain
1:53 PM 55.9 °F 51.1 °F 84% 29.76 in 8.0 mi Calm Calm - 0.00 in   Mostly Cloudy
3:53 PM 55.0 °F 50.0 °F 83% 29.74 in 8.0 mi Calm Calm - 0.00 in   Overcast
5:00 PM 53.6 °F 51.8 °F 94% 29.73 in 10.0 mi Calm Calm - 0.00 in Rain Light Rain
5:53 PM 54.0 °F 52.0 °F 93% 29.73 in 10.0 mi Calm Calm - 0.01 in Rain Light Rain
5:58 PM 53.6 °F 51.8 °F 94% 29.73 in 10.0 mi Calm Calm - 0.00 in Rain Light Rain
6:07 PM 53.6 °F 51.8 °F 94% 29.73 in 10.0 mi Calm Calm - 0.00 in Rain Light Rain
6:19 PM 53.6 °F 51.8 °F 94% 29.72 in 10.0 mi Calm Calm - 0.00 in Rain Light Rain
6:31 PM 53.6 °F 51.8 °F 94% 29.72 in 10.0 mi NE 3.5 mph - 0.00 in   Overcast
6:53 PM 54.0 °F 52.0 °F 93% 29.72 in 10.0 mi Calm Calm - 0.00 in   Overcast
7:53 PM 53.1 °F 52.0 °F 96% 29.71 in 9.0 mi Calm Calm - N/A   Overcast
8:53 PM 53.1 °F 51.1 °F 93% 29.68 in 10.0 mi South 4.6 mph - N/A   Mostly Cloudy
10:53 PM 52.0 °F 50.0 °F 93% 29.68 in 10.0 mi SW 4.6 mph - N/A   Mostly Cloudy
11:53 PM 52.0 °F 48.9 °F 89% 29.65 in 10.0 mi Calm Calm - N/A   Clear